PEGASUS DEB, 39307

Orbit data source: Space-Track

PEGASUS DEB, 39307 is space debris in LEO originally from a launch on Thu, 19 May 1994 UTC launched from the Air Force Western Test Range (AFWTR). Debris objects in space refer to the collection of defunct objects orbiting the Earth. Examples of debris include non-operational satellites, rocket bodies, and fragments generated from explosions, collisions, or faulty payload assembly.

Loading next visibility...
Identifier
39307, 1994-029AES
Orbit
LEO
Country
Flag of USUS
Related business
Manufacturer
Unknown
Mission
Spacecraft
Bus & Motor
Unknown
Mass
Unknown
Launch date (UTC)
1994-05-19 (32 years ago)
Launch vehicle
Unknown
Launch site
Air Force Western Test Range (AFWTR)
Object type
Payload
Rocket body
Debris
Shape & HBR
Unknown shape, 0.1 m
Radar Cross Section
Small (<0.1 m²)

Expand to show TLE details & history
Last TLE update: 2 days ago

TLE from 2 days ago
0 PEGASUS DEB
1 39307U 94029AES 26173.54895082  .00066109  00000-0  15289-2 0  9995
2 39307  81.9381 218.6193 0056738  89.7032 271.0714 15.40501185784441
Epoch: 2026-06-22T13:10Z
TLE epoch observation values (Epoch: 2026-06-22T13:10:29.350Z)
Latitude
-0.00002°
Longitude
110.26373°
Altitude
447.223 km
Speed
7.644 km/s
True Right ascension
14h 34m 28s
True Declination
0° 00' 00"
Sunlit
Object was in full shadow at epoch
Visualization orbit readout
Latitude
Unknown
Longitude
Unknown
Altitude
Unknown
Speed
Unknown
Apparent Right ascension
Unknown
Apparent Declination
Unknown
Sunlit
N/A
Visualization observer readout
Local Sidereal Time
00:06:02
Azimuth
Unknown
Elevation
Unknown
Doppler factor
Unknown
Orbital elements
Apogee altitude
480.291 km
Perigee altitude
402.903 km
Semi-major axis
6,819.734 km
Eccentricity
0.00567
Inclination
81.9381°
RAAN
218.6193°
Arg. of periapsis
89.7032°
True anomaly
270.42127°
Mean anomaly
271.0714°
Eccentric anomaly
270.74634°
Mean motion
3.85383 °/min
Orbital period
93.41 mins
BSTAR
0.0015289
Loading maneuver chart data...
Computing Atmospheric mass density...

Documentation

Showing up to 5 results
|